Location: Perryvale
(54.4667°N, 113.3833°W)
Time: 23:55:15
(UTC+00:00)

Vanguard 1 - Pass Details

Date: 27 May 2024
Orbit: 652 x 3825 km, 34.2° (Epoch: 13 June)

Event Time Altitude Azimuth Distance (km) Brightness Sun altitude
Rises 07:19:17 0° 260° (W) 5,307 13.7 -14.1°
Reaches altitude 10° 07:23:05 10° 248° (WSW) 4,741 13.3 -14.1°
Maximum altitude 07:33:54 26° 199° (SSW) 4,556 12.9 -14.1°
Drops below altitude 10° 07:49:02 10° 153° (SSE) 6,709 13.8 -14.0°
Sets 07:56:04 0° 143° (SE) 7,924 14.3 -13.9°
